Regional Weather Roundup
Issued by NWS Newport/Morehead, NC

Current Version | Previous Version | Graphics & Text | Print | Product List | Glossary Off
Versions: 1 2 3 4 5 6 7 8 9 10 11 12 13 14 15 16 17 18 19 20 21 22 23 24 25 26 27 28 29 30 31 32 33 34 35 36 37 38 39 40 41 42 43 44 45 46 47 48 49 50

000
ASUS42 KMHX 300025
RWRMHX
WEATHER ROUNDUP FOR EASTERN NORTH CAROLINA
NATIONAL WEATHER SERVICE NEWPORT/MOREHEAD CITY NC
800 PM EDT THU SEP 29 2016

NOTE: "FAIR" INDICATES FEW OR NO CLOUDS BELOW 12,000 FEET
WITH NO SIGNIFICANT WEATHER AND/OR OBSTRUCTIONS TO VISIBILITY

NCZ015>017-031-032-045>047-102-103-300100-
NORTH COAST

CITY           SKY/WX    TMP DP  RH WIND       PRES   REMARKS
EDENTON        CLOUDY    74  74 100 NE3       30.04S
ELIZABETH CITY CLOUDY    73  70  90 N5        30.04S
KITTY HAWK     CLOUDY    75  75 100 E3        30.01S
MANTEO         CLOUDY    74  74  98 SE3       30.03R

$$

NCZ045>047-081-094-103-104-300100-
CENTRAL COAST

CITY           SKY/WX    TMP DP  RH WIND       PRES   REMARKS
FRISCO         MOCLDY    78  75  90 CALM      30.03R

$$

NCZ095-097-098-100-101-300100-
SOUTHERN COAST

CITY           SKY/WX    TMP DP  RH WIND       PRES   REMARKS
BEAUFORT       CLOUDY    75  71  87 SE3       30.01F
CEDAR ISLAND   NOT AVBL
JACKSONVILLE   CLEAR     77  72  84 SE9       29.98F
PINEY ISLAND   CLOUDY   N/A N/A N/A E5        30.01F
WILMINGTON     PTCLDY    76  72  87 S5        29.99R


$$

NCZ011>013-027>030-043-044-078>080-089-090>093-098-300100-
COASTAL PLAIN

CITY           SKY/WX    TMP DP  RH WIND       PRES   REMARKS
AHOSKIE        CLOUDY    72  70  95 CALM      30.05R
CLINTON        MOCLDY    72  72 100 CALM      30.00R FOG
ELIZABETHTOWN  PTCLDY    70  70 100 CALM      29.98R
GOLDSBORO      LGT RAIN  75  75 100 E5        29.99S
GREENVILLE     PTCLDY    72  72 100 CALM      30.05R
HAVELOCK       CLEAR     74  71  91 E5        30.02F
KENANSVILLE    LGT RAIN  73  73 100 CALM      30.02R
KINSTON        PTCLDY    73  72  94 CALM      30.03R
NEW BERN       CLEAR     74  70  87 E3        30.01F
RICHLANDS      PTCLDY    75  72  90 CALM      30.02R
ROCKY MOUNT    MOCLDY    72  71  97 NE3       30.02R
WASHINGTON     CLEAR     72  70  96 CALM      30.02F
WHITEVILLE     PTCLDY    74  72  95 CALM      29.97R

$$

AMZ130-135-150-152-154-156-158-170-250-252-270-ANZ085-086-088-633-658-670-300100-
MARINE OBSERVATIONS

STATION/POSITION TIME  TEMP    WIND        PRES    WAVE   SWELL
                       AIR SEA DIR/SP/G            HT/PER HT/PER
                 (UTC) (F)     (DEG/KT/KT) (MB)    (FT/S) (FT/S)
CHESAPEAKE LIGHT NOT AVBL
64 E VA BEACH    2350   76 75   90/ 10/ 12 1016.3    8/ 9   8/ 9
DUCK             2354   76 77   90/  8/ 10 1016.2
2 E DUCK         0011      76                N/A     5/ 8   2/11
OREGON INLET     2354   76 78   70/  4/  6 1016.7
13E OREGON INLT  0000      77                N/A     5/ 8   5/ 8
HATTERAS CG      2354   78 80  120/  2/  4 1016.5
DIAMOND BUOY     2350   80 78  170/ 12/ 14 1016.7    3/11   3/11
CAPE LOOKOUT     0000   79     140/  9/  9 1016.0
BEAUFORT LAB     2354   78 77  130/  5/  7 1015.5
30 SE NEW RVR IN 0008   81 83  150/ 10/ 14 1016.0
30 SE NEW RVR IN 2355      83                N/A     3/ 5
27 SE WRIGHTSVLE 0008   81 81  160/ 12/ 14 1015.9
5 SE WRIGHTSVLE  2308   80 81  150/ 10/ 14 1016.5
225 S CAPE HAT   2350   81 83  190/ 12/ 14 1017.5    3/ 6   2/10
41 SE CHARLESTON 2350   81 82  200/ 12/ 14 1014.4    3/ 5   2/11

$$




USA.gov is the U.S. government's official web portal to all federal, state and local government web resources and services.